Погода в Новом Устье

Россия / Хабаровский край     59°19′43″N   143°03′23″E
темп.,
°C
ветер,
м/с
пор.,
м/с
влажн.,
%
обл.,
%
осадки,
мм/ч
давл.,
гПа
погр.,
м
14 апреля, ср
ср1401:00−14св229897 0.0 101816
04:00−16с459996 0.0 101655
07:00−14с5897100 0.0 1015179
10:00−11с7880100 0.0 1012278
13:00−7ссв7870100 0.0 1008641
16:00−4св6860100 0.0 10051083
19:00−5ссв5969100 0.1 1002264
22:00−5ссв61078100 0.4 1001378
15 апреля, чт
чт1501:00−6ссв71294100 0.6 1000536
04:00−6св71090100 1.3 1000567
07:00−6св6108599 0.8 1001758
10:00−4св6966100 0.8 10021004
13:00−3ссв6877100 0.2 1002955
16:00−1ссв576689 0.5 10031165
19:00−5ссз44835 0.1 100438
22:00−9ссз348384 0.1 100529
16 апреля, пт
пт1601:00−12с338934 0.0 100627
04:00−14ссв22925 0.0 100813
07:00−13с339140 0.0 101052
10:00−8ссв22764 0.0 1011177
13:00−5з227410 0.0 1012350
16:00−3юз13694 0.0 1013410
19:00−7ю11855 0.0 101410
22:00−10ююв11945 0.0 101510
17 апреля, сб
сб1701:00−12ссв229744 0.0 101514
04:00−13ссв459978 0.0 101641
07:00−12ссв359980 0.0 101672
10:00−6св338745 0.0 1017223
13:00−3вюв448595 0.0 1016442
16:00−2юв448457 0.0 1015460
19:00−6юв339311 0.0 101520
22:00−8юв339859 0.0 101528
18 апреля, вс
вс1801:00−6ююв3597100 0.1 1014128
04:00−4ююв4796100 0.4 1014235
07:00−3ююв4695100 0.2 1014349
10:00−2ююв4590100 0.4 1015499
13:00−1ююв3488100 0.1 1016494
16:00−1юв3491100 0.3 1016394
19:00−1вюв4594100 0.1 1016139
22:00−2в3698100 0.3 1017137